Location: Big Prairie
(40.6673°N, 82.0952°W)
Time: 19:37:51
(UTC+00:00)

USA 267 - Pass Details

Date: 03 December 2021
Orbit: 1101 x 1107 km, 123.0° (Epoch: 13 December)

Event Time Altitude Azimuth Distance (km) Brightness Sun altitude
Exits shadow 22:20:15 - 44° (NE) 3,671 5.4 -4.0°
Reaches altitude 10° 22:22:06 10° 42° (NE) 2,962 5.0 -4.3°
Maximum altitude 22:28:32 64° 323° (NW) 1,212 3.6 -5.4°
Drops below altitude 10° 22:34:58 10° 244° (WSW) 2,952 7.4 -6.5°
Sets 22:37:27 0° 241° (WSW) 3,908 8.7 -7.0°
